Location: Harbor Island
(32.3990°N, 80.4435°W)
Time: 09:07:24
(UTC-05:00)

Daily predictions for brighter satellites

Satellite Brightness Start Highest point End
(mag) Time Altitude Azimuth Time Altitude Azimuth Time Altitude Azimuth
Cosmos 1862 Rocket 3.6 17:35:57 10° S 17:40:20 87° E 17:44:49 10° N
COSMOS 2406 3.2 17:34:43 10° NNW 17:40:28 77° ENE 17:46:08 10° SSE
Cosmos 1814 Rocket 4.5 17:37:46 10° N 17:42:48 40° ENE 17:47:47 10° SE
SL-27 R/B 4.2 17:48:14 10° NE 17:49:48 13° ENE 17:51:22 10° E
CSL-04 Debris 4.1 17:44:35 10° SSE 17:50:00 76° ENE 17:55:25 10° N
Cosmos 1461 3.8 17:46:06 10° NW 17:50:45 62° WSW 17:55:25 10° SSE
Ariane Rocket 3.0 17:46:59 10° SSE 17:52:04 78° ENE 17:57:09 10° N
COSMOS 2455 3.9 17:50:39 10° SW 17:56:22 46° WNW 18:02:08 10° NNE
Cosmos 1816 Rocket 4.5 17:53:12 10° N 17:59:22 88° E 18:05:31 10° S
Okean 1-7 3.8 17:55:42 10° SSE 17:59:32 31° E 18:03:24 10° NNE
Cosmos 2297 4.2 17:54:45 10° S 18:00:00 40° ESE 18:05:18 10° NE
USA 234 3.3 17:53:44 10° NE 18:00:16 75° SE 18:06:48 10° SW
Meteor 1-26 Rocket 4.5 17:55:01 10° SSW 18:00:36 75° W 18:06:09 10° N
Cosmos 1833 Rocket 3.9 18:00:15 10° NNE 18:04:21 20° ENE 18:08:26 10° ESE
CZ-4 R/B 1.2 18:01:26 10° SSE 18:05:18 73° ENE 18:09:09 10° N
Cosmos 841 Rocket 3.8 18:00:36 10° N 18:05:36 43° ENE 18:10:34 10° SE
Cosmos 2278 Rocket 2.6 18:00:09 10° SSW 18:05:47 67° WNW 18:11:27 10° NNE
Cosmos 1633 3.5 18:03:44 10° NNE 18:06:52 26° E 18:09:58 10° SE
Cosmos 1486 Rocket 4.1 18:02:00 10° SSW 18:07:12 81° WNW 18:12:27 10° NNE
MTI 3.7 18:05:07 10° NNE 18:08:19 69° E 18:11:31 10° S
Atlas 2A Centaur Rocket 4.4 17:39:23 10° WSW 18:08:26 57° S 18:13:22 12° ESE
CORIOLIS 4.3 18:09:24 10° SSE 18:14:51 83° WSW 18:20:20 10° NNW
GPS 2-05 Rocket1 3.3 18:12:24 10° SW 18:15:25 42° SSE 18:17:13 21° E
Cosmos 1782 Rocket 4.1 18:12:41 10° NNE 18:16:41 35° E 18:20:41 10° SSE
YAOGAN 1 2.5 18:13:31 10° SSE 18:17:49 70° ENE 18:22:08 10° N
COSMO-SKYMED 1 2.5 18:17:16 10° NNE 18:21:37 78° ESE 18:25:56 10° S
OAO 3 Copernicus 4.4 18:17:07 10° WNW 18:22:11 66° N 18:25:29 21° E
SPOT 3 Rocket 3.9 18:17:30 10° SE 18:22:23 42° ENE 18:27:17 10° N
Cosmos 1484 Rocket 4.3 18:19:36 10° S 18:23:11 39° W 18:26:52 10° NNW
Cosmos 1354 Rocket 4.0 18:18:22 10° S 18:23:36 69° ESE 18:28:51 10° NNE
OAO 3 Rocket 3.9 18:19:31 10° SW 18:24:10 43° SSE 18:27:02 21° E
Cosmos 304 Rocket 3.7 18:20:21 10° NNW 18:25:10 89° WSW 18:29:56 10° SSE
Cosmos 1441 Rocket 4.1 18:22:07 10° SSE 18:25:32 28° E 18:26:29 25° ENE
Cosmos 1606 2.6 18:22:26 10° S 18:26:12 88° W 18:29:59 10° N
Cosmos 2034 Rocket 4.3 18:20:30 10° SSE 18:26:27 43° E 18:32:24 10° NNE
BREEZE-M DEB (TANK) 3.9 18:24:54 10° W 18:26:31 18° NNW 18:27:47 14° NNE
MONITOR-E 4.3 18:23:38 10° SSE 18:26:33 47° ENE 18:29:31 10° N
Cosmos 2221 Rocket 3.5 18:25:51 10° S 18:30:13 68° E 18:34:36 10° NNE
EO 1 Del DPAF 3.6 18:32:26 10° N 18:36:14 65° WNW 18:40:00 10° SSW
NOAA 12 4.2 18:32:16 10° SSE 18:37:25 53° ENE 18:42:35 10° N
Meteor 2-6 Rocket 4.0 18:32:48 10° S 18:38:10 78° E 18:43:41 10° N
Cosmos 1703 Rocket 4.4 18:35:26 10° SSW 18:39:48 53° W 18:44:10 10° N
USA 229 DEB 4.5 18:35:40 10° SSE 18:41:12 28° ESE 18:42:33 26° E
USA 229 4.5 18:35:48 10° SSE 18:41:18 27° ESE 18:42:35 26° E
Chunghua 1 4.4 18:37:41 10° WNW 18:41:24 74° NNE 18:42:20 47° E
Cosmos 1782 3.6 18:38:44 10° SSW 18:42:40 54° W 18:46:37 10° N
ERBS 2.7 18:41:35 10° NW 18:44:57 64° SW 18:47:25 17° SSE
Cosmos 2082 Rocket 2.3 18:45:02 10° N 18:50:33 50° ENE 18:55:41 12° SE
ALOS 2.1 18:47:43 10° SSE 18:52:22 77° ENE 18:57:03 10° N
Meteor 2-20 4.5 18:48:39 10° N 18:54:33 51° E 19:00:24 10° SSE
Cosmos 1464 Rocket 4.1 18:49:12 10° S 18:55:17 75° W 19:01:26 10° N
Okean 2 Rocket 3.0 18:51:18 10° N 18:55:48 66° E 19:00:16 10° SSE
Cosmos 405 Rocket 2.7 18:53:28 10° S 18:57:19 78° W 18:58:56 33° N
Tiangong 1 3.0 18:55:04 10° SSW 18:55:59 18° SSW 18:55:59 18° SSW
Thor Agena Rocket 3.5 18:59:06 39° NE 19:00:50 59° ESE 19:05:53 10° S
BREEZE-M DEB (TANK) 2.9 18:55:48 10° WNW 19:01:13 55° SW 19:02:15 37° SSE
ERS-2 3.9 18:59:03 10° SSW 19:02:24 33° W 19:05:46 10° NNW
Meteor 1-27 Rocket 3.7 18:59:03 10° S 19:04:54 84° E 19:10:52 10° N
BREEZE-M R/B 3.9 19:20:45 10° NW 19:22:51 40° NNW 19:22:51 40° NNW
IUS-13 SRM-1 4.5 19:26:24 10° WSW 19:26:55 16° SW 19:26:55 16° SW
Cosmos 968 Rocket 3.9 19:31:30 10° SSW 19:36:34 58° WNW 19:37:11 54° NW
CZ-4C R/B 3.5 19:30:33 10° NNW 19:35:39 39° NNE 19:35:39 39° NNE
Meteor 2-20 Rocket 4.3 19:31:37 10° N 19:37:43 87° W 19:43:47 10° S
Cosmos 2369 Rocket 4.0 19:37:32 10° S 19:39:08 19° S 19:39:08 19° S
Meteor 1-11 Rocket 4.3 19:42:38 10° NNW 19:48:20 57° W 19:53:53 10° S
Cosmos 1833 Rocket 3.6 19:43:07 10° NW 19:48:27 46° WSW 19:53:32 11° S
